QPF
0.00 0.00 0.00 0.00 0.01 0.01 0.01 0.00 0.00 0.00 0.00 0.00 0.00 0.00 0.00 0.01 0.01 0.02 0.02 0.01 0.01 0.01 0.01 0.01 0.02 0.02 0.01 0.01 0.01 0.01 0.01 0.02 0.02 0.03 0.05 0.05 0.04 0.03 0.03 0.03 0.04 0.04 0.04 0.03 0.04 0.04 0.02 0.01 0.01
0.00 0.00 0.00 0.00 0.00 0.00 0.00 0.00 0.00 0.00 0.00 0.00 0.00 0.00 0.00 0.00 0.01 0.02 0.01 0.01 0.01 0.01 0.01 0.01 0.02 0.02 0.02 0.02 0.02 0.01 0.02 0.02 0.02 0.03 0.05 0.06 0.06 0.04 0.04 0.04 0.04 0.05 0.05 0.04 0.04 0.03 0.02 0.01 0.01
0.00 0.00 0.00 0.00 0.00 0.00 0.00 0.01 0.00 0.00 0.00 0.00 0.00 0.00 0.00 0.00 0.00 0.01 0.01 0.01 0.01 0.00 0.00 0.01 0.01 0.02 0.02 0.03 0.03 0.03 0.04 0.04 0.03 0.03 0.05 0.06 0.06 0.05 0.05 0.05 0.06 0.06 0.05 0.04 0.04 0.04 0.03 0.02 0.02
0.00 0.00 0.00 0.00 0.00 0.00 0.00 0.00 0.00 0.00 0.00 0.00 0.00 0.00 0.00 0.00 0.00 0.00 0.01 0.01 0.00 0.00 0.00 0.01 0.01 0.02 0.02 0.03 0.04 0.04 0.04 0.05 0.04 0.03 0.05 0.08 0.08 0.07 0.05 0.06 0.07 0.06 0.04 0.04 0.04 0.04 0.02 0.02 0.02
0.00 0.00 0.00 0.00 0.00 0.00 0.00 0.00 0.00 0.00 0.00 0.00 0.00 0.00 0.00 0.00 0.00 0.00 0.00 0.01 0.00 0.00 0.01 0.01 0.01 0.02 0.02 0.03 0.04 0.04 0.04 0.05 0.04 0.05 0.06 0.08 0.12 0.12 0.06 0.05 0.05 0.04 0.03 0.03 0.04 0.04 0.03 0.02 0.02
0.00 0.00 0.00 0.00 0.00 0.00 0.00 0.00 0.00 0.00 0.00 0.00 0.00 0.00 0.00 0.00 0.01 0.01 0.01 0.01 0.01 0.01 0.01 0.01 0.01 0.01 0.01 0.02 0.03 0.03 0.03 0.04 0.05 0.05 0.05 0.06 0.08 0.10 0.08 0.05 0.04 0.03 0.02 0.02 0.03 0.04 0.03 0.03 0.03
0.00 0.00 0.00 0.00 0.00 0.00 0.00 0.00 0.00 0.00 0.00 0.00 0.00 0.00 0.00 0.01 0.01 0.01 0.01 0.01 0.01 0.01 0.02 0.02 0.01 0.01 0.01 0.02 0.02 0.03 0.04 0.04 0.05 0.05 0.05 0.05 0.06 0.06 0.06 0.05 0.03 0.02 0.02 0.02 0.03 0.04 0.03 0.03 0.02
0.00 0.01 0.00 0.00 0.00 0.00 0.00 0.00 0.01 0.01 0.00 0.00 0.00 0.00 0.01 0.01 0.01 0.02 0.02 0.01 0.02 0.03 0.03 0.03 0.02 0.02 0.01 0.02 0.02 0.02 0.03 0.04 0.04 0.04 0.04 0.04 0.05 0.05 0.05 0.05 0.04 0.02 0.01 0.02 0.02 0.04 0.03 0.02 0.02
0.00 0.00 0.00 0.00 0.00 0.01 0.00 0.01 0.01 0.01 0.00 0.00 0.00 0.00 0.01 0.01 0.01 0.02 0.03 0.02 0.02 0.03 0.03 0.04 0.03 0.03 0.04 0.03 0.02 0.02 0.02 0.03 0.03 0.03 0.03 0.04 0.06 0.07 0.06 0.07 0.04 0.01 0.01 0.01 0.02 0.04 0.02 0.01 0.01
0.00 0.00 0.00 0.00 0.01 0.01 0.01 0.01 0.01 0.01 0.00 0.00 0.00 0.00 0.01 0.01 0.01 0.02 0.02 0.03 0.03 0.03 0.03 0.03 0.04 0.05 0.05 0.04 0.03 0.02 0.02 0.03 0.02 0.02 0.03 0.03 0.07 0.09 0.09 0.10 0.03 0.01 0.01 0.01 0.01 0.03 0.03 0.01 0.01
0.00 0.00 0.01 0.01 0.01 0.01 0.01 0.01 0.01 0.00 0.00 0.01 0.01 0.01 0.01 0.01 0.01 0.01 0.02 0.03 0.03 0.04 0.06 0.04 0.04 0.05 0.06 0.05 0.04 0.02 0.02 0.02 0.04 0.05 0.04 0.04 0.04 0.07 0.10 0.09 0.03 0.01 0.01 0.01 0.01 0.03 0.03 0.01 0.01
0.00 0.00 0.01 0.01 0.01 0.01 0.00 0.01 0.00 0.00 0.00 0.01 0.01 0.01 0.01 0.01 0.02 0.01 0.02 0.02 0.02 0.04 0.07 0.06 0.06 0.05 0.06 0.05 0.04 0.03 0.02 0.02 0.03 0.05 0.05 0.04 0.04 0.07 0.08 0.08 0.04 0.02 0.01 0.01 0.01 0.01 0.03 0.01 0.01
0.00 0.00 0.00 0.00 0.00 0.00 0.00 0.00 0.00 0.00 0.00 0.00 0.00 0.00 0.00 0.01 0.01 0.02 0.02 0.02 0.01 0.02 0.06 0.08 0.07 0.09 0.07 0.05 0.04 0.04 0.03 0.02 0.03 0.06 0.05 0.05 0.05 0.07 0.08 0.08 0.07 0.04 0.02 0.02 0.01 0.01 0.03 0.02 0.01
0.00 0.00 0.00 0.00 0.00 0.00 0.00 0.00 0.00 0.00 0.00 0.00 0.00 0.00 0.00 0.00 0.01 0.01 0.02 0.02 0.01 0.01 0.04 0.08 0.08 0.12 0.09 0.06 0.05 0.04 0.03 0.03 0.03 0.05 0.06 0.05 0.05 0.06 0.07 0.09 0.09 0.06 0.04 0.03 0.02 0.02 0.04 0.03 0.01
0.00 0.00 0.00 0.00 0.00 0.00 0.00 0.00 0.00 0.00 0.00 0.00 0.00 0.00 0.00 0.00 0.01 0.01 0.02 0.02 0.01 0.01 0.02 0.05 0.07 0.12 0.12 0.09 0.06 0.05 0.05 0.04 0.04 0.05 0.06 0.05 0.04 0.05 0.05 0.06 0.08 0.08 0.05 0.04 0.03 0.02 0.03 0.04 0.02
0.00 0.00 0.00 0.00 0.00 0.00 0.00 0.00 0.00 0.00 0.00 0.00 0.00 0.00 0.00 0.00 0.01 0.01 0.02 0.02 0.02 0.01 0.02 0.03 0.04 0.07 0.12 0.11 0.08 0.08 0.07 0.06 0.05 0.05 0.06 0.05 0.03 0.05 0.06 0.05 0.05 0.07 0.06 0.05 0.04 0.03 0.03 0.04 0.03
0.00 0.00 0.00 0.00 0.00 0.00 0.00 0.00 0.00 0.00 0.00 0.00 0.00 0.00 0.00 0.00 0.00 0.01 0.02 0.02 0.03 0.02 0.02 0.03 0.03 0.04 0.09 0.12 0.09 0.08 0.07 0.07 0.06 0.06 0.06 0.04 0.03 0.04 0.05 0.07 0.07 0.06 0.05 0.05 0.04 0.04 0.04 0.04 0.04
0.01 0.00 0.00 0.00 0.00 0.00 0.00 0.00 0.00 0.00 0.00 0.00 0.00 0.00 0.00 0.00 0.00 0.01 0.02 0.03 0.03 0.03 0.02 0.03 0.03 0.04 0.05 0.07 0.07 0.07 0.06 0.06 0.07 0.07 0.07 0.04 0.03 0.03 0.04 0.05 0.05 0.05 0.05 0.04 0.03 0.03 0.03 0.04 0.06
0.00 0.00 0.00 0.00 0.00 0.00 0.00 0.00 0.00 0.00 0.00 0.00 0.00 0.00 0.00 0.00 0.01 0.01 0.02 0.03 0.03 0.03 0.03 0.03 0.03 0.03 0.04 0.04 0.04 0.05 0.05 0.05 0.07 0.07 0.05 0.05 0.03 0.02 0.03 0.05 0.06 0.05 0.05 0.04 0.03 0.03 0.03 0.04 0.07
0.00 0.01 0.00 0.00 0.00 0.00 0.00 0.00 0.00 0.00 0.00 0.00 0.00 0.00 0.00 0.00 0.01 0.01 0.02 0.03 0.03 0.03 0.03 0.03 0.03 0.03 0.04 0.04 0.03 0.04 0.04 0.04 0.06 0.07 0.06 0.04 0.03 0.02 0.02 0.04 0.05 0.05 0.05 0.05 0.04 0.03 0.03 0.03 0.06
0.01 0.01 0.00 0.00 0.00 0.00 0.00 0.00 0.00 0.00 0.00 0.00 0.00 0.00 0.00 0.00 0.00 0.01 0.02 0.02 0.03 0.03 0.03 0.03 0.04 0.03 0.03 0.03 0.03 0.04 0.05 0.05 0.06 0.06 0.06 0.05 0.03 0.02 0.02 0.02 0.03 0.04 0.05 0.05 0.04 0.04 0.04 0.04 0.04
0.01 0.01 0.00 0.00 0.00 0.00 0.00 0.01 0.00 0.00 0.00 0.00 0.00 0.00 0.00 0.00 0.00 0.01 0.01 0.01 0.02 0.02 0.03 0.03 0.03 0.04 0.03 0.02 0.02 0.02 0.03 0.03 0.03 0.04 0.05 0.05 0.03 0.02 0.02 0.02 0.02 0.03 0.04 0.04 0.04 0.03 0.04 0.04 0.04
0.01 0.00 0.01 0.01 0.01 0.01 0.01 0.02 0.00 0.00 0.00 0.00 0.00 0.00 0.00 0.00 0.00 0.01 0.01 0.01 0.02 0.02 0.02 0.02 0.03 0.04 0.04 0.03 0.02 0.02 0.02 0.02 0.02 0.03 0.05 0.04 0.03 0.02 0.02 0.02 0.02 0.03 0.03 0.03 0.03 0.03 0.04 0.03 0.03
0.01 0.01 0.01 0.01 0.02 0.02 0.01 0.01 0.01 0.00 0.01 0.01 0.00 0.00 0.00 0.00 0.00 0.01 0.01 0.01 0.02 0.03 0.02 0.02 0.02 0.02 0.04 0.04 0.03 0.03 0.03 0.02 0.02 0.02 0.04 0.03 0.03 0.02 0.02 0.02 0.01 0.03 0.03 0.02 0.02 0.02 0.03 0.03 0.03
0.01 0.02 0.02 0.02 0.03 0.02 0.00 0.00 0.01 0.01 0.01 0.01 0.01 0.00 0.00 0.00 0.00 0.01 0.01 0.01 0.02 0.03 0.02 0.02 0.02 0.02 0.02 0.05 0.05 0.04 0.03 0.03 0.03 0.02 0.02 0.03 0.03 0.02 0.02 0.02 0.01 0.02 0.02 0.02 0.02 0.02 0.02 0.03 0.03
0.01 0.01 0.02 0.02 0.01 0.00 0.00 0.00 0.01 0.01 0.01 0.01 0.01 0.00 0.00 0.00 0.00 0.01 0.01 0.01 0.01 0.02 0.02 0.02 0.02 0.02 0.02 0.03 0.05 0.06 0.05 0.04 0.03 0.03 0.03 0.03 0.03 0.02 0.02 0.02 0.02 0.02 0.01 0.01 0.01 0.01 0.02 0.02 0.03
0.01 0.01 0.01 0.01 0.01 0.01 0.01 0.01 0.01 0.00 0.00 0.00 0.01 0.00 0.00 0.00 0.01 0.01 0.01 0.01 0.01 0.01 0.02 0.01 0.02 0.02 0.02 0.02 0.03 0.04 0.05 0.05 0.04 0.03 0.03 0.02 0.03 0.02 0.02 0.02 0.03 0.02 0.02 0.01 0.01 0.01 0.02 0.02 0.03
0.01 0.01 0.01 0.02 0.02 0.01 0.01 0.01 0.02 0.01 0.00 0.00 0.00 0.01 0.01 0.01 0.01 0.01 0.02 0.02 0.01 0.01 0.01 0.01 0.01 0.02 0.02 0.02 0.02 0.03 0.03 0.05 0.05 0.05 0.03 0.02 0.02 0.02 0.02 0.02 0.02 0.02 0.02 0.02 0.02 0.02 0.02 0.02 0.03
0.01 0.01 0.02 0.02 0.02 0.02 0.01 0.01 0.01 0.01 0.00 0.00 0.00 0.01 0.01 0.01 0.01 0.01 0.01 0.01 0.01 0.01 0.01 0.01 0.01 0.02 0.02 0.02 0.02 0.03 0.03 0.03 0.04 0.04 0.05 0.04 0.02 0.02 0.01 0.01 0.01 0.01 0.01 0.01 0.02 0.02 0.02 0.02 0.02
0.00 0.00 0.01 0.02 0.02 0.02 0.02 0.02 0.01 0.00 0.00 0.00 0.01 0.01 0.01 0.01 0.01 0.01 0.01 0.01 0.01 0.01 0.01 0.01 0.01 0.02 0.02 0.02 0.02 0.02 0.02 0.03 0.03 0.03 0.03 0.03 0.03 0.02 0.01 0.01 0.01 0.01 0.01 0.01 0.01 0.02 0.02 0.03 0.03
MSLP
1014.29 1014.76 1015.33 1015.92 1016.46 1016.88 1017.15 1017.27 1017.28 1017.24 1017.20 1017.23 1017.36 1017.58 1017.88 1018.20 1018.49 1018.71 1018.83 1018.85 1018.79 1018.68 1018.58 1018.51 1018.51 1018.59 1018.72 1018.88 1019.05 1019.20 1019.31 1019.39 1019.44 1019.49 1019.55 1019.63 1019.73 1019.85 1019.98 1020.08 1020.14 1020.15 1020.10 1020.01 1019.88 1019.72 1019.55 1019.37 1019.18
1014.64 1015.15 1015.72 1016.26 1016.71 1017.03 1017.20 1017.23 1017.18 1017.10 1017.06 1017.10 1017.24 1017.47 1017.77 1018.08 1018.35 1018.54 1018.64 1018.65 1018.60 1018.51 1018.44 1018.41 1018.44 1018.54 1018.69 1018.88 1019.07 1019.24 1019.40 1019.52 1019.63 1019.73 1019.84 1019.95 1020.07 1020.18 1020.28 1020.35 1020.38 1020.37 1020.32 1020.23 1020.12 1019.98 1019.84 1019.68 1019.51
1015.07 1015.59 1016.11 1016.57 1016.91 1017.10 1017.15 1017.10 1016.99 1016.88 1016.85 1016.92 1017.09 1017.36 1017.68 1018.00 1018.28 1018.47 1018.57 1018.58 1018.54 1018.47 1018.41 1018.40 1018.45 1018.56 1018.72 1018.91 1019.12 1019.32 1019.51 1019.69 1019.85 1020.00 1020.14 1020.27 1020.38 1020.47 1020.53 1020.56 1020.56 1020.54 1020.49 1020.42 1020.33 1020.24 1020.12 1020.00 1019.86
1015.50 1016.00 1016.47 1016.83 1017.05 1017.12 1017.07 1016.93 1016.78 1016.67 1016.65 1016.76 1016.98 1017.29 1017.64 1017.98 1018.27 1018.47 1018.58 1018.61 1018.59 1018.54 1018.50 1018.50 1018.55 1018.65 1018.80 1018.99 1019.20 1019.42 1019.64 1019.85 1020.06 1020.25 1020.42 1020.56 1020.66 1020.73 1020.76 1020.76 1020.74 1020.70 1020.65 1020.61 1020.56 1020.51 1020.44 1020.36 1020.25
1015.86 1016.33 1016.73 1017.01 1017.13 1017.12 1016.99 1016.80 1016.64 1016.54 1016.56 1016.70 1016.97 1017.31 1017.68 1018.04 1018.34 1018.55 1018.67 1018.72 1018.72 1018.69 1018.67 1018.68 1018.72 1018.80 1018.93 1019.10 1019.30 1019.52 1019.76 1020.01 1020.25 1020.48 1020.67 1020.82 1020.93 1020.98 1020.99 1020.97 1020.93 1020.89 1020.87 1020.85 1020.84 1020.83 1020.80 1020.75 1020.67
1016.07 1016.51 1016.86 1017.08 1017.15 1017.09 1016.94 1016.76 1016.61 1016.55 1016.61 1016.80 1017.09 1017.45 1017.83 1018.18 1018.47 1018.68 1018.81 1018.88 1018.89 1018.89 1018.88 1018.89 1018.93 1019.00 1019.10 1019.24 1019.42 1019.63 1019.88 1020.15 1020.42 1020.68 1020.90 1021.07 1021.18 1021.24 1021.24 1021.22 1021.18 1021.15 1021.14 1021.15 1021.17 1021.19 1021.20 1021.16 1021.10
1016.12 1016.53 1016.84 1017.03 1017.09 1017.04 1016.93 1016.80 1016.72 1016.72 1016.84 1017.06 1017.37 1017.72 1018.08 1018.40 1018.67 1018.86 1018.99 1019.06 1019.09 1019.11 1019.12 1019.13 1019.16 1019.21 1019.29 1019.41 1019.57 1019.77 1020.01 1020.29 1020.58 1020.87 1021.12 1021.31 1021.45 1021.52 1021.53 1021.52 1021.49 1021.48 1021.48 1021.50 1021.54 1021.56 1021.58 1021.56 1021.49
1016.04 1016.41 1016.70 1016.89 1016.97 1016.98 1016.94 1016.90 1016.92 1017.01 1017.18 1017.44 1017.76 1018.09 1018.42 1018.70 1018.93 1019.09 1019.20 1019.27 1019.32 1019.35 1019.37 1019.40 1019.42 1019.47 1019.53 1019.63 1019.76 1019.95 1020.19 1020.47 1020.77 1021.07 1021.34 1021.56 1021.72 1021.81 1021.84 1021.85 1021.83 1021.83 1021.83 1021.85 1021.88 1021.91 1021.91 1021.88 1021.81
1015.89 1016.22 1016.49 1016.69 1016.82 1016.90 1016.96 1017.04 1017.16 1017.34 1017.59 1017.88 1018.20 1018.52 1018.81 1019.05 1019.24 1019.38 1019.47 1019.53 1019.58 1019.62 1019.66 1019.70 1019.73 1019.77 1019.83 1019.91 1020.04 1020.21 1020.44 1020.71 1021.01 1021.31 1021.59 1021.82 1021.99 1022.10 1022.16 1022.17 1022.17 1022.16 1022.16 1022.17 1022.18 1022.18 1022.16 1022.11 1022.04
1015.78 1016.05 1016.29 1016.50 1016.67 1016.83 1016.98 1017.16 1017.39 1017.66 1017.96 1018.30 1018.63 1018.95 1019.22 1019.44 1019.60 1019.72 1019.80 1019.87 1019.92 1019.97 1020.01 1020.06 1020.10 1020.15 1020.21 1020.29 1020.40 1020.57 1020.78 1021.03 1021.31 1021.59 1021.85 1022.08 1022.25 1022.37 1022.43 1022.46 1022.47 1022.46 1022.44 1022.43 1022.41 1022.37 1022.32 1022.25 1022.16
1015.76 1015.98 1016.18 1016.38 1016.57 1016.78 1017.01 1017.27 1017.57 1017.91 1018.27 1018.64 1019.00 1019.32 1019.60 1019.83 1020.00 1020.12 1020.21 1020.28 1020.34 1020.39 1020.44 1020.49 1020.54 1020.59 1020.66 1020.75 1020.87 1021.02 1021.21 1021.43 1021.68 1021.92 1022.14 1022.34 1022.49 1022.60 1022.67 1022.70 1022.71 1022.70 1022.67 1022.63 1022.57 1022.50 1022.42 1022.32 1022.23
1015.89 1016.04 1016.20 1016.37 1016.57 1016.80 1017.06 1017.36 1017.70 1018.08 1018.48 1018.88 1019.27 1019.64 1019.95 1020.22 1020.43 1020.58 1020.70 1020.78 1020.84 1020.88 1020.92 1020.97 1021.02 1021.09 1021.17 1021.27 1021.40 1021.55 1021.72 1021.91 1022.10 1022.29 1022.46 1022.60 1022.72 1022.80 1022.86 1022.89 1022.90 1022.89 1022.86 1022.80 1022.72 1022.62 1022.50 1022.39 1022.29
1016.15 1016.24 1016.36 1016.50 1016.68 1016.90 1017.16 1017.46 1017.80 1018.19 1018.60 1019.04 1019.47 1019.89 1020.27 1020.61 1020.88 1021.09 1021.24 1021.34 1021.39 1021.42 1021.44 1021.47 1021.52 1021.59 1021.68 1021.81 1021.95 1022.11 1022.28 1022.43 1022.57 1022.69 1022.79 1022.87 1022.94 1022.99 1023.03 1023.07 1023.09 1023.08 1023.05 1022.99 1022.89 1022.77 1022.63 1022.50 1022.39
1016.45 1016.52 1016.61 1016.73 1016.89 1017.09 1017.33 1017.61 1017.93 1018.29 1018.70 1019.14 1019.61 1020.09 1020.56 1020.99 1021.35 1021.63 1021.82 1021.93 1021.97 1021.97 1021.95 1021.94 1021.96 1022.04 1022.15 1022.31 1022.48 1022.67 1022.83 1022.97 1023.07 1023.13 1023.16 1023.18 1023.19 1023.21 1023.24 1023.27 1023.30 1023.32 1023.31 1023.25 1023.15 1023.01 1022.86 1022.71 1022.59
1016.71 1016.77 1016.88 1017.01 1017.18 1017.37 1017.58 1017.82 1018.10 1018.42 1018.80 1019.24 1019.75 1020.29 1020.84 1021.36 1021.81 1022.16 1022.39 1022.50 1022.51 1022.46 1022.39 1022.33 1022.33 1022.39 1022.53 1022.72 1022.95 1023.18 1023.37 1023.51 1023.59 1023.61 1023.59 1023.55 1023.51 1023.49 1023.51 1023.55 1023.60 1023.64 1023.65 1023.60 1023.51 1023.37 1023.20 1023.03 1022.89
1016.81 1016.92 1017.07 1017.26 1017.46 1017.68 1017.88 1018.09 1018.32 1018.59 1018.93 1019.36 1019.88 1020.47 1021.10 1021.70 1022.24 1022.65 1022.91 1023.02 1023.00 1022.89 1022.74 1022.63 1022.58 1022.64 1022.80 1023.05 1023.34 1023.63 1023.87 1024.05 1024.13 1024.13 1024.08 1024.00 1023.92 1023.88 1023.88 1023.92 1023.99 1024.05 1024.08 1024.06 1023.97 1023.82 1023.63 1023.44 1023.28
1016.71 1016.88 1017.13 1017.41 1017.70 1017.96 1018.18 1018.38 1018.56 1018.78 1019.07 1019.48 1020.00 1020.62 1021.31 1021.99 1022.60 1023.07 1023.36 1023.46 1023.40 1023.23 1023.02 1022.84 1022.76 1022.81 1023.00 1023.29 1023.65 1024.02 1024.34 1024.57 1024.69 1024.70 1024.64 1024.54 1024.44 1024.37 1024.36 1024.40 1024.48 1024.55 1024.59 1024.58 1024.49 1024.34 1024.14 1023.92 1023.75
1016.40 1016.67 1017.03 1017.43 1017.82 1018.16 1018.42 1018.61 1018.76 1018.92 1019.16 1019.53 1020.04 1020.69 1021.43 1022.18 1022.86 1023.39 1023.71 1023.82 1023.74 1023.52 1023.25 1023.02 1022.91 1022.95 1023.16 1023.50 1023.94 1024.39 1024.79 1025.09 1025.26 1025.31 1025.26 1025.15 1025.04 1024.96 1024.93 1024.96 1025.03 1025.10 1025.15 1025.13 1025.04 1024.88 1024.67 1024.44 1024.24
1015.96 1016.32 1016.80 1017.32 1017.82 1018.24 1018.54 1018.72 1018.84 1018.95 1019.13 1019.46 1019.96 1020.62 1021.40 1022.23 1022.99 1023.59 1023.98 1024.12 1024.04 1023.80 1023.50 1023.24 1023.09 1023.12 1023.35 1023.74 1024.23 1024.76 1025.24 1025.61 1025.84 1025.94 1025.91 1025.82 1025.70 1025.61 1025.56 1025.58 1025.63 1025.69 1025.72 1025.69 1025.59 1025.42 1025.20 1024.96 1024.75
1015.50 1015.92 1016.49 1017.12 1017.71 1018.18 1018.50 1018.67 1018.73 1018.78 1018.90 1019.18 1019.67 1020.35 1021.19 1022.10 1022.96 1023.67 1024.15 1024.36 1024.33 1024.12 1023.82 1023.54 1023.38 1023.41 1023.63 1024.04 1024.57 1025.15 1025.68 1026.12 1026.41 1026.55 1026.56 1026.49 1026.38 1026.28 1026.22 1026.21 1026.24 1026.27 1026.28 1026.24 1026.13 1025.95 1025.73 1025.49 1025.28
1015.12 1015.59 1016.21 1016.89 1017.52 1018.00 1018.30 1018.41 1018.41 1018.38 1018.43 1018.67 1019.14 1019.86 1020.77 1021.78 1022.78 1023.62 1024.24 1024.57 1024.64 1024.50 1024.24 1023.98 1023.82 1023.83 1024.05 1024.45 1024.98 1025.57 1026.14 1026.61 1026.95 1027.13 1027.18 1027.13 1027.04 1026.95 1026.88 1026.85 1026.85 1026.86 1026.85 1026.80 1026.69 1026.51 1026.29 1026.06 1025.86
1014.94 1015.41 1016.04 1016.71 1017.30 1017.74 1017.96 1017.98 1017.88 1017.76 1017.75 1017.94 1018.42 1019.18 1020.18 1021.32 1022.46 1023.48 1024.26 1024.76 1024.97 1024.94 1024.76 1024.54 1024.40 1024.40 1024.59 1024.96 1025.46 1026.03 1026.59 1027.07 1027.43 1027.64 1027.73 1027.72 1027.66 1027.58 1027.52 1027.48 1027.48 1027.48 1027.46 1027.40 1027.30 1027.14 1026.94 1026.73 1026.55
1014.97 1015.41 1016.00 1016.61 1017.12 1017.44 1017.54 1017.44 1017.22 1017.01 1016.92 1017.09 1017.58 1018.40 1019.50 1020.77 1022.08 1023.28 1024.25 1024.93 1025.31 1025.41 1025.34 1025.19 1025.07 1025.06 1025.21 1025.53 1025.98 1026.50 1027.03 1027.50 1027.86 1028.10 1028.22 1028.25 1028.23 1028.18 1028.14 1028.13 1028.13 1028.13 1028.13 1028.09 1028.00 1027.87 1027.70 1027.52 1027.35
1015.20 1015.60 1016.11 1016.61 1016.99 1017.16 1017.12 1016.88 1016.54 1016.23 1016.09 1016.25 1016.76 1017.65 1018.84 1020.24 1021.70 1023.07 1024.23 1025.08 1025.62 1025.88 1025.91 1025.84 1025.76 1025.75 1025.87 1026.13 1026.52 1026.98 1027.45 1027.89 1028.24 1028.50 1028.66 1028.73 1028.76 1028.76 1028.77 1028.79 1028.82 1028.85 1028.87 1028.86 1028.81 1028.72 1028.59 1028.44 1028.29
1015.56 1015.91 1016.33 1016.70 1016.92 1016.94 1016.73 1016.36 1015.92 1015.55 1015.39 1015.55 1016.10 1017.05 1018.33 1019.83 1021.41 1022.91 1024.20 1025.21 1025.89 1026.27 1026.42 1026.43 1026.39 1026.40 1026.50 1026.72 1027.04 1027.44 1027.87 1028.27 1028.62 1028.88 1029.07 1029.20 1029.28 1029.34 1029.40 1029.47 1029.54 1029.62 1029.68 1029.71 1029.71 1029.66 1029.57 1029.45 1029.31
1015.96 1016.27 1016.60 1016.83 1016.90 1016.76 1016.43 1015.95 1015.45 1015.06 1014.91 1015.11 1015.71 1016.72 1018.06 1019.62 1021.27 1022.84 1024.21 1025.30 1026.08 1026.56 1026.81 1026.90 1026.92 1026.95 1027.06 1027.26 1027.55 1027.91 1028.29 1028.67 1029.01 1029.29 1029.51 1029.68 1029.81 1029.92 1030.04 1030.15 1030.28 1030.40 1030.50 1030.58 1030.63 1030.63 1030.58 1030.49 1030.36
1016.34 1016.60 1016.83 1016.94 1016.88 1016.62 1016.19 1015.66 1015.16 1014.80 1014.71 1014.98 1015.65 1016.71 1018.08 1019.66 1021.30 1022.87 1024.25 1025.37 1026.19 1026.74 1027.05 1027.22 1027.31 1027.39 1027.53 1027.75 1028.03 1028.38 1028.75 1029.12 1029.45 1029.75 1029.99 1030.19 1030.36 1030.52 1030.67 1030.82 1030.98 1031.14 1031.28 1031.41 1031.50 1031.55 1031.54 1031.48 1031.37
1016.64 1016.85 1016.99 1016.98 1016.81 1016.46 1015.99 1015.47 1015.01 1014.75 1014.77 1015.14 1015.89 1016.99 1018.37 1019.92 1021.50 1023.01 1024.33 1025.41 1026.23 1026.80 1027.16 1027.40 1027.56 1027.73 1027.93 1028.19 1028.51 1028.87 1029.25 1029.62 1029.96 1030.26 1030.52 1030.74 1030.92 1031.10 1031.27 1031.44 1031.61 1031.79 1031.96 1032.12 1032.25 1032.34 1032.37 1032.35 1032.26
1016.86 1017.00 1017.03 1016.91 1016.64 1016.23 1015.76 1015.30 1014.95 1014.82 1014.99 1015.49 1016.34 1017.48 1018.84 1020.32 1021.81 1023.20 1024.42 1025.42 1026.20 1026.76 1027.17 1027.47 1027.73 1027.98 1028.27 1028.61 1028.98 1029.39 1029.79 1030.17 1030.52 1030.82 1031.08 1031.30 1031.48 1031.65 1031.81 1031.97 1032.13 1032.31 1032.49 1032.66 1032.82 1032.94 1033.02 1033.04 1032.99
1017.03 1017.06 1016.95 1016.71 1016.34 1015.89 1015.44 1015.07 1014.86 1014.90 1015.24 1015.89 1016.83 1018.01 1019.35 1020.76 1022.13 1023.40 1024.49 1025.40 1026.12 1026.68 1027.12 1027.49 1027.84 1028.20 1028.59 1029.01 1029.46 1029.91 1030.35 1030.75 1031.10 1031.40 1031.64 1031.84 1032.01 1032.15 1032.28 1032.41 1032.55 1032.70 1032.87 1033.05 1033.22 1033.38 1033.50 1033.56 1033.56
Thickness
5677 5679 5678 5671 5654 5638 5641 5652 5662 5666 5668 5672 5675 5672 5666 5662 5662 5659 5666 5671 5671 5671 5671 5671 5672 5673 5673 5673 5673 5673 5673 5672 5673 5672 5672 5672 5672 5672 5672 5671 5671 5671 5670 5670 5669 5669 5668 5668 5668
5673 5674 5669 5655 5638 5627 5636 5650 5656 5663 5669 5671 5670 5667 5661 5658 5662 5662 5663 5666 5668 5667 5667 5667 5667 5668 5668 5668 5669 5669 5668 5668 5668 5668 5667 5667 5668 5668 5667 5667 5666 5666 5666 5665 5664 5664 5663 5663 5663
5670 5668 5653 5640 5629 5628 5637 5650 5654 5661 5666 5666 5661 5658 5655 5654 5657 5658 5660 5662 5663 5663 5663 5663 5663 5663 5664 5664 5664 5664 5664 5664 5664 5663 5663 5663 5663 5663 5663 5662 5662 5661 5661 5660 5660 5659 5658 5658 5658
5661 5652 5642 5629 5628 5634 5641 5647 5652 5655 5659 5660 5655 5648 5649 5653 5655 5656 5658 5658 5658 5658 5658 5658 5659 5659 5659 5659 5659 5659 5659 5659 5659 5659 5658 5658 5658 5658 5658 5657 5657 5656 5656 5655 5655 5654 5654 5653 5653
5651 5638 5627 5618 5624 5633 5640 5646 5648 5649 5650 5652 5650 5642 5642 5648 5652 5653 5653 5654 5653 5653 5653 5653 5653 5653 5654 5654 5654 5654 5654 5654 5654 5654 5653 5653 5652 5652 5652 5652 5651 5651 5651 5650 5649 5649 5648 5648 5648
5636 5627 5614 5611 5621 5631 5637 5641 5643 5641 5643 5645 5643 5637 5636 5642 5644 5646 5648 5648 5648 5648 5647 5647 5648 5648 5648 5649 5649 5648 5649 5648 5648 5648 5648 5648 5647 5647 5646 5646 5646 5646 5645 5645 5644 5643 5643 5642 5642
5627 5617 5612 5614 5617 5625 5632 5637 5635 5634 5634 5635 5637 5631 5631 5635 5638 5640 5641 5642 5642 5642 5642 5642 5642 5642 5642 5643 5643 5643 5643 5643 5642 5642 5642 5642 5642 5641 5640 5640 5640 5639 5639 5638 5638 5638 5637 5637 5637
5625 5614 5612 5611 5614 5620 5629 5631 5633 5631 5628 5632 5632 5624 5623 5628 5632 5633 5634 5635 5635 5635 5635 5635 5636 5636 5636 5636 5636 5636 5636 5636 5636 5636 5636 5636 5636 5635 5634 5634 5633 5633 5632 5632 5631 5631 5631 5631 5630
5623 5605 5602 5609 5613 5617 5623 5623 5625 5626 5624 5624 5624 5623 5624 5625 5626 5626 5626 5626 5627 5627 5628 5628 5629 5629 5629 5629 5629 5629 5629 5629 5629 5629 5629 5629 5628 5628 5627 5627 5626 5626 5625 5624 5624 5624 5624 5624 5624
5609 5597 5605 5613 5614 5615 5616 5616 5615 5616 5614 5612 5614 5616 5617 5617 5618 5618 5618 5617 5618 5619 5620 5621 5621 5622 5622 5621 5621 5621 5621 5620 5620 5620 5621 5621 5621 5620 5620 5620 5620 5619 5618 5617 5616 5616 5616 5617 5617
5604 5599 5605 5609 5611 5611 5610 5608 5608 5607 5603 5605 5606 5607 5607 5608 5609 5610 5610 5610 5611 5611 5612 5614 5614 5614 5614 5613 5612 5612 5612 5612 5612 5612 5613 5613 5613 5612 5612 5612 5611 5611 5610 5609 5609 5608 5608 5608 5609
5597 5598 5601 5603 5605 5604 5602 5601 5597 5597 5598 5601 5602 5602 5601 5600 5601 5602 5602 5602 5603 5604 5604 5605 5606 5607 5606 5606 5604 5604 5603 5603 5603 5604 5605 5605 5604 5604 5603 5603 5602 5602 5602 5601 5601 5601 5600 5600 5601
5590 5590 5593 5594 5594 5594 5594 5592 5590 5589 5592 5593 5594 5594 5593 5593 5593 5594 5596 5595 5596 5596 5597 5597 5598 5598 5598 5597 5596 5596 5596 5595 5595 5595 5596 5597 5596 5595 5595 5595 5594 5593 5593 5593 5593 5593 5592 5592 5592
5582 5582 5583 5585 5586 5586 5584 5583 5581 5583 5584 5584 5584 5585 5585 5586 5587 5587 5587 5587 5588 5589 5589 5590 5590 5590 5590 5590 5589 5589 5588 5587 5587 5587 5588 5588 5588 5587 5587 5587 5585 5585 5584 5584 5584 5584 5584 5584 5584
5576 5572 5574 5578 5579 5578 5576 5574 5574 5578 5576 5576 5576 5577 5578 5579 5580 5580 5581 5582 5582 5582 5583 5583 5583 5583 5582 5582 5581 5581 5580 5580 5579 5579 5579 5579 5579 5579 5578 5578 5577 5576 5575 5575 5575 5575 5575 5575 5575
5564 5558 5556 5568 5570 5570 5565 5563 5571 5569 5568 5567 5568 5569 5570 5572 5573 5573 5574 5575 5576 5576 5576 5576 5576 5575 5575 5574 5573 5573 5572 5572 5571 5570 5570 5570 5570 5570 5569 5569 5568 5567 5566 5566 5566 5566 5565 5565 5565
5545 5541 5547 5556 5561 5559 5554 5554 5563 5561 5560 5560 5560 5561 5563 5564 5565 5565 5566 5567 5568 5569 5568 5568 5568 5568 5568 5567 5566 5565 5564 5563 5562 5561 5561 5561 5561 5560 5560 5559 5559 5558 5557 5556 5556 5556 5555 5555 5555
5534 5534 5539 5543 5550 5548 5543 5545 5552 5553 5552 5552 5553 5554 5555 5556 5557 5557 5558 5559 5560 5561 5560 5560 5560 5560 5560 5559 5557 5556 5554 5554 5553 5552 5551 5551 5551 5551 5551 5550 5549 5548 5547 5546 5546 5545 5545 5545 5546
5535 5532 5531 5537 5541 5537 5535 5539 5545 5546 5544 5545 5546 5546 5548 5549 5548 5548 5549 5549 5550 5551 5551 5551 5551 5551 5551 5550 5549 5548 5546 5545 5544 5543 5543 5542 5542 5541 5541 5539 5539 5538 5537 5536 5536 5535 5535 5535 5536
5528 5523 5522 5527 5532 5528 5526 5531 5538 5540 5540 5542 5543 5542 5542 5540 5539 5539 5540 5540 5540 5541 5541 5542 5542 5541 5542 5543 5542 5540 5538 5536 5536 5535 5533 5533 5532 5532 5531 5530 5529 5528 5527 5526 5526 5526 5525 5525 5525
5521 5516 5515 5515 5518 5518 5514 5519 5528 5536 5535 5536 5536 5536 5534 5534 5532 5531 5531 5530 5530 5531 5531 5534 5533 5533 5533 5533 5533 5531 5529 5527 5525 5525 5524 5524 5523 5523 5522 5521 5520 5518 5518 5517 5516 5517 5517 5515 5515
5512 5514 5512 5508 5500 5496 5503 5498 5519 5525 5526 5526 5526 5525 5524 5525 5524 5523 5522 5521 5521 5522 5522 5523 5524 5524 5524 5524 5524 5523 5522 5520 5518 5517 5516 5514 5514 5513 5513 5512 5511 5509 5508 5508 5507 5507 5507 5506 5506
5505 5506 5502 5499 5492 5486 5488 5485 5506 5513 5517 5520 5519 5517 5515 5515 5514 5513 5513 5513 5512 5512 5513 5513 5513 5514 5514 5514 5515 5514 5513 5511 5509 5508 5506 5505 5504 5503 5503 5503 5501 5500 5499 5498 5497 5497 5497 5496 5496
5495 5491 5486 5478 5473 5470 5481 5478 5496 5501 5514 5516 5513 5510 5507 5506 5504 5503 5502 5502 5502 5502 5502 5502 5503 5503 5504 5503 5504 5504 5503 5501 5500 5498 5497 5495 5494 5493 5493 5492 5491 5490 5489 5488 5487 5487 5487 5487 5487
5482 5470 5457 5453 5445 5460 5477 5478 5493 5505 5507 5508 5505 5501 5498 5495 5493 5492 5492 5492 5492 5492 5491 5492 5492 5492 5492 5493 5493 5493 5492 5491 5490 5488 5487 5486 5484 5483 5483 5482 5481 5480 5480 5479 5478 5477 5477 5477 5477
5469 5466 5452 5442 5442 5456 5466 5471 5491 5495 5495 5496 5494 5491 5488 5485 5483 5483 5483 5483 5482 5482 5481 5481 5482 5481 5481 5481 5481 5481 5481 5479 5478 5477 5476 5475 5474 5474 5473 5472 5471 5470 5469 5468 5467 5467 5466 5466 5466
5458 5454 5457 5443 5430 5434 5454 5463 5478 5484 5485 5484 5482 5478 5476 5474 5473 5472 5472 5472 5472 5471 5471 5471 5471 5470 5471 5470 5470 5469 5469 5468 5467 5465 5464 5463 5463 5463 5462 5461 5460 5459 5458 5457 5456 5456 5455 5455 5455
5455 5449 5437 5431 5423 5427 5453 5463 5472 5479 5477 5474 5470 5467 5466 5463 5461 5461 5461 5462 5462 5460 5460 5460 5460 5460 5460 5460 5458 5458 5457 5456 5455 5453 5452 5451 5451 5450 5450 5449 5448 5448 5447 5445 5445 5444 5444 5443 5443
5441 5438 5435 5427 5425 5425 5432 5458 5473 5473 5470 5465 5460 5458 5455 5452 5450 5450 5450 5451 5450 5449 5448 5448 5448 5448 5448 5447 5447 5446 5444 5443 5442 5441 5440 5440 5439 5438 5437 5436 5436 5435 5434 5433 5433 5433 5432 5431 5431
5434 5434 5429 5422 5416 5420 5431 5453 5463 5460 5457 5453 5449 5448 5445 5442 5441 5439 5439 5438 5437 5437 5437 5437 5437 5437 5437 5435 5434 5433 5432 5431 5430 5429 5428 5427 5426 5425 5424 5424 5423 5423 5422 5421 5420 5420 5419 5419 5418